Time,TemperatureF,DewpointF,PressureIn,WindDirection,WindDirectionDegrees,WindSpeedMPH,WindSpeedGustMPH,Humidity,HourlyPrecipIn,Conditions,Clouds,dailyrainin,SoftwareType,DateUTC
2014-02-19 00:01:00,78.1,62.1,29.99,ENE,74,10.0,15.0,58,0.00,,FEW018,0.00,VWS V14.00,2014-02-19 05:01:00,
2014-02-19 00:06:00,78.1,61.6,29.99,East,88,3.0,7.0,57,0.00,,FEW018,0.00,VWS V14.00,2014-02-19 05:06:00,
2014-02-19 00:11:00,77.9,61.5,29.99,East,93,5.0,9.0,57,0.00,,FEW018,0.00,VWS V14.00,2014-02-19 05:11:00,
2014-02-19 00:16:00,77.9,61.5,29.98,ENE,69,7.0,10.0,57,0.00,,FEW018,0.00,VWS V14.00,2014-02-19 05:16:00,
2014-02-19 00:21:00,77.9,61.5,29.98,ENE,76,6.0,10.0,57,0.00,,FEW018,0.00,VWS V14.00,2014-02-19 05:21:00,
2014-02-19 00:26:00,77.9,61.5,29.98,ESE,107,6.0,13.0,57,0.00,,FEW018,0.00,VWS V14.00,2014-02-19 05:26:00,
2014-02-19 00:31:00,77.9,61.5,29.98,East,84,5.0,13.0,57,0.00,,FEW018,0.00,VWS V14.00,2014-02-19 05:31:00,
2014-02-19 00:36:00,77.9,61.0,29.98,SE,130,5.0,13.0,56,0.00,,FEW018,0.00,VWS V14.00,2014-02-19 05:36:00,
2014-02-19 00:41:00,77.9,61.0,29.98,ENE,67,3.0,13.0,56,0.00,,FEW018,0.00,VWS V14.00,2014-02-19 05:41:00,
2014-02-19 00:46:00,77.9,61.0,29.98,East,96,5.0,13.0,56,0.00,,FEW018,0.00,VWS V14.00,2014-02-19 05:46:00,
2014-02-19 00:51:00,77.9,61.0,29.98,ENE,69,6.0,13.0,56,0.00,,FEW018,0.00,VWS V14.00,2014-02-19 05:51:00,
2014-02-19 00:56:00,77.9,61.0,29.98,ESE,123,4.0,13.0,56,0.00,,FEW018,0.00,VWS V14.00,2014-02-19 05:56:00,
2014-02-19 01:01:00,77.9,61.0,29.97,ENE,71,6.0,13.0,56,0.00,,FEW018,0.00,VWS V14.00,2014-02-19 06:01:00,
2014-02-19 01:06:00,77.9,61.0,29.97,ENE,69,2.0,7.0,56,0.00,,FEW018,0.00,VWS V14.00,2014-02-19 06:06:00,
2014-02-19 01:11:00,77.7,61.3,29.97,ENE,61,3.0,7.0,57,0.00,,FEW018,0.00,VWS V14.00,2014-02-19 06:11:00,
2014-02-19 01:16:00,77.7,61.3,29.96,ENE,68,4.0,8.0,57,0.00,,FEW018,0.00,VWS V14.00,2014-02-19 06:16:00,
2014-02-19 01:21:00,77.7,61.3,29.96,ENE,76,9.0,9.0,57,0.00,,FEW018,0.00,VWS V14.00,2014-02-19 06:21:00,
2014-02-19 01:26:00,77.7,60.8,29.96,NE,35,3.0,14.0,56,0.00,,FEW018,0.00,VWS V14.00,2014-02-19 06:26:00,
2014-02-19 01:31:00,77.7,60.8,29.96,ENE,69,3.0,14.0,56,0.00,,FEW018,0.00,VWS V14.00,2014-02-19 06:31:00,
2014-02-19 01:36:00,77.7,60.8,29.96,ENE,59,6.0,14.0,56,0.00,,FEW018,0.00,VWS V14.00,2014-02-19 06:36:00,
2014-02-19 01:41:00,77.9,61.0,29.96,East,81,5.0,14.0,56,0.00,,FEW018,0.00,VWS V14.00,2014-02-19 06:41:00,
2014-02-19 01:46:00,78.1,61.1,29.96,East,90,5.0,14.0,56,0.00,,FEW018,0.00,VWS V14.00,2014-02-19 06:46:00,
2014-02-19 01:51:00,78.1,60.6,29.96,ENE,64,4.0,14.0,55,0.00,,FEW018,0.00,VWS V14.00,2014-02-19 06:51:00,
2014-02-19 01:56:00,78.3,60.8,29.96,East,80,5.0,14.0,55,0.00,,FEW018,0.00,VWS V14.00,2014-02-19 06:56:00,
2014-02-19 02:01:00,78.3,60.8,29.96,East,87,7.0,14.0,55,0.00,,FEW018,0.00,VWS V14.00,2014-02-19 07:01:00,
2014-02-19 02:06:00,78.5,61.5,29.95,NE,37,5.0,14.0,56,0.00,,FEW018,0.00,VWS V14.00,2014-02-19 07:06:00,
2014-02-19 02:11:00,78.5,61.5,29.95,East,85,5.0,17.0,56,0.00,,FEW018,0.00,VWS V14.00,2014-02-19 07:11:00,
2014-02-19 02:16:00,78.5,61.5,29.95,East,81,5.0,17.0,56,0.00,,FEW018,0.00,VWS V14.00,2014-02-19 07:16:00,
2014-02-19 02:21:00,78.5,62.0,29.95,East,88,3.0,17.0,57,0.00,,FEW018,0.00,VWS V14.00,2014-02-19 07:21:00,
2014-02-19 02:25:00,78.3,62.3,29.95,SE,128,3.0,17.0,58,0.00,,FEW018,0.00,VWS V14.00,2014-02-19 07:25:00,
2014-02-19 02:30:00,78.1,62.6,29.95,East,80,6.0,17.0,59,0.00,,FEW018,0.00,VWS V14.00,2014-02-19 07:30:00,
2014-02-19 02:35:00,78.1,62.6,29.94,ENE,67,6.0,17.0,59,0.00,,FEW018,0.00,VWS V14.00,2014-02-19 07:35:00,
2014-02-19 02:40:00,77.9,62.9,29.94,East,92,6.0,17.0,60,0.00,,FEW018,0.00,VWS V14.00,2014-02-19 07:40:00,
2014-02-19 02:45:00,77.7,62.7,29.94,East,92,6.0,17.0,60,0.00,,FEW018,0.00,VWS V14.00,2014-02-19 07:45:00,
2014-02-19 02:50:00,77.7,62.7,29.94,ENE,72,9.0,17.0,60,0.00,,FEW018,0.00,VWS V14.00,2014-02-19 07:50:00,
2014-02-19 02:55:00,77.7,62.7,29.94,East,81,3.0,17.0,60,0.00,,FEW018,0.00,VWS V14.00,2014-02-19 07:55:00,
2014-02-19 03:00:00,77.7,62.7,29.94,East,80,6.0,17.0,60,0.00,,FEW018,0.00,VWS V14.00,2014-02-19 08:00:00,
2014-02-19 03:05:00,77.6,62.6,29.94,East,82,6.0,12.0,60,0.00,,FEW018,0.00,VWS V14.00,2014-02-19 08:05:00,
2014-02-19 03:10:00,77.4,62.4,29.94,ENE,78,4.0,12.0,60,0.00,,FEW018,0.00,VWS V14.00,2014-02-19 08:10:00,
2014-02-19 03:15:00,77.4,62.4,29.94,East,80,7.0,12.0,60,0.00,,FEW018,0.00,VWS V14.00,2014-02-19 08:15:00,
2014-02-19 03:20:00,77.4,62.4,29.93,ENE,78,5.0,12.0,60,0.00,,FEW018,0.00,VWS V14.00,2014-02-19 08:20:00,
2014-02-19 03:25:00,77.2,62.2,29.93,East,101,5.0,12.0,60,0.00,,FEW018,0.00,VWS V14.00,2014-02-19 08:25:00,
2014-02-19 03:30:00,77.2,61.8,29.93,East,82,6.0,12.0,59,0.00,,FEW018,0.00,VWS V14.00,2014-02-19 08:30:00,
2014-02-19 03:35:00,77.0,61.6,29.93,ESE,111,5.0,12.0,59,0.00,,FEW018,0.00,VWS V14.00,2014-02-19 08:35:00,
2014-02-19 03:40:00,77.0,61.6,29.93,ESE,107,5.0,12.0,59,0.00,,FEW018,0.00,VWS V14.00,2014-02-19 08:40:00,
2014-02-19 03:45:00,77.0,61.6,29.93,East,80,6.0,12.0,59,0.00,,FEW018,0.00,VWS V14.00,2014-02-19 08:45:00,
2014-02-19 03:50:00,76.8,61.4,29.93,East,99,5.0,12.0,59,0.00,,FEW018,0.00,VWS V14.00,2014-02-19 08:50:00,
2014-02-19 03:55:00,76.8,61.4,29.93,ESE,102,4.0,12.0,59,0.00,,FEW018,0.00,VWS V14.00,2014-02-19 08:55:00,
2014-02-19 04:00:00,76.8,61.9,29.93,East,81,5.0,12.0,60,0.00,,FEW018,0.00,VWS V14.00,2014-02-19 09:00:00,
2014-02-19 04:05:00,76.8,61.4,29.93,ENE,78,4.0,12.0,59,0.00,,FEW018,0.00,VWS V14.00,2014-02-19 09:05:00,
2014-02-19 04:10:00,76.7,61.8,29.93,East,101,5.0,12.0,60,0.00,,FEW018,0.00,VWS V14.00,2014-02-19 09:10:00,
2014-02-19 04:15:00,76.7,61.3,29.93,ENE,70,4.0,12.0,59,0.00,,FEW018,0.00,VWS V14.00,2014-02-19 09:15:00,
2014-02-19 04:20:00,76.7,61.8,29.93,ENE,76,6.0,12.0,60,0.00,,FEW018,0.00,VWS V14.00,2014-02-19 09:20:00,
2014-02-19 04:25:00,76.7,61.8,29.93,East,99,6.0,12.0,60,0.00,,FEW018,0.00,VWS V14.00,2014-02-19 09:25:00,
2014-02-19 04:30:00,76.7,61.8,29.93,East,90,4.0,12.0,60,0.00,,FEW018,0.00,VWS V14.00,2014-02-19 09:30:00,
2014-02-19 04:35:00,76.7,61.8,29.93,ESE,105,3.0,12.0,60,0.00,,FEW018,0.00,VWS V14.00,2014-02-19 09:35:00,
2014-02-19 04:40:00,76.7,61.8,29.93,ENE,70,4.0,12.0,60,0.00,,FEW018,0.00,VWS V14.00,2014-02-19 09:40:00,
2014-02-19 04:45:00,76.7,61.8,29.93,ENE,59,4.0,12.0,60,0.00,,FEW018,0.00,VWS V14.00,2014-02-19 09:45:00,
2014-02-19 04:50:00,76.7,61.8,29.93,East,82,8.0,12.0,60,0.00,,FEW018,0.00,VWS V14.00,2014-02-19 09:50:00,
2014-02-19 04:55:00,76.7,61.3,29.93,ENE,65,5.0,12.0,59,0.00,,FEW018,0.00,VWS V14.00,2014-02-19 09:55:00,
2014-02-19 05:00:00,76.7,61.3,29.93,East,84,4.0,12.0,59,0.00,,FEW018,0.00,VWS V14.00,2014-02-19 10:00:00,
2014-02-19 05:05:00,76.8,61.4,29.93,East,84,5.0,9.0,59,0.00,,FEW018,0.00,VWS V14.00,2014-02-19 10:05:00,
2014-02-19 05:10:00,76.8,61.4,29.93,ENE,57,6.0,11.0,59,0.00,,FEW018,0.00,VWS V14.00,2014-02-19 10:10:00,
2014-02-19 05:15:00,76.8,61.4,29.93,ESE,121,9.0,11.0,59,0.00,,FEW018,0.00,VWS V14.00,2014-02-19 10:15:00,
2014-02-19 05:20:00,77.0,61.6,29.94,ENE,74,4.0,11.0,59,0.00,,FEW018,0.00,VWS V14.00,2014-02-19 10:20:00,
2014-02-19 05:25:00,77.0,62.1,29.94,NE,34,9.0,14.0,60,0.00,,FEW018,0.00,VWS V14.00,2014-02-19 10:25:00,
2014-02-19 05:30:00,77.0,61.6,29.94,ENE,74,5.0,14.0,59,0.00,,FEW018,0.00,VWS V14.00,2014-02-19 10:30:00,
2014-02-19 05:35:00,77.0,61.6,29.93,ENE,67,10.0,15.0,59,0.00,,FEW018,0.00,VWS V14.00,2014-02-19 10:35:00,
2014-02-19 05:40:00,77.2,62.2,29.93,East,79,5.0,15.0,60,0.00,,FEW018,0.00,VWS V14.00,2014-02-19 10:40:00,
2014-02-19 05:45:00,77.0,62.5,29.93,ENE,62,4.0,15.0,61,0.00,,FEW018,0.00,VWS V14.00,2014-02-19 10:45:00,
2014-02-19 05:50:00,76.8,62.3,29.94,East,84,4.0,15.0,61,0.00,,FEW018,0.00,VWS V14.00,2014-02-19 10:50:00,
2014-02-19 05:55:00,76.7,62.7,29.94,NE,55,3.0,15.0,62,0.00,,FEW018,0.00,VWS V14.00,2014-02-19 10:55:00,
2014-02-19 06:00:00,76.7,62.7,29.94,ESE,107,2.0,15.0,62,0.00,,FEW018,0.00,VWS V14.00,2014-02-19 11:00:00,
2014-02-19 06:05:00,76.5,63.0,29.94,ENE,72,6.0,7.0,63,0.00,,FEW018,0.00,VWS V14.00,2014-02-19 11:05:00,
2014-02-19 06:10:00,76.3,62.8,29.94,East,90,3.0,8.0,63,0.00,,FEW018,0.00,VWS V14.00,2014-02-19 11:10:00,
2014-02-19 06:15:00,76.3,63.2,29.94,East,93,2.0,8.0,64,0.00,,FEW018,0.00,VWS V14.00,2014-02-19 11:15:00,
2014-02-19 06:20:00,76.3,63.2,29.95,NE,49,10.0,13.0,64,0.00,,FEW018,0.00,VWS V14.00,2014-02-19 11:20:00,
2014-02-19 06:25:00,76.1,63.0,29.95,East,86,10.0,13.0,64,0.00,,FEW018,0.00,VWS V14.00,2014-02-19 11:25:00,
2014-02-19 06:30:00,76.1,63.0,29.95,East,84,5.0,13.0,64,0.00,,FEW018,0.00,VWS V14.00,2014-02-19 11:30:00,
2014-02-19 06:35:00,76.1,63.5,29.95,ENE,59,4.0,13.0,65,0.00,,FEW018,0.00,VWS V14.00,2014-02-19 11:35:00,
2014-02-19 06:40:00,76.0,63.4,29.95,ENE,65,4.0,13.0,65,0.00,,FEW018,0.00,VWS V14.00,2014-02-19 11:40:00,
2014-02-19 06:45:00,76.0,63.4,29.95,East,91,3.0,13.0,65,0.00,,FEW018,0.00,VWS V14.00,2014-02-19 11:45:00,
2014-02-19 06:50:00,76.0,63.4,29.96,ENE,70,6.0,13.0,65,0.00,,FEW018,0.00,VWS V14.00,2014-02-19 11:50:00,
2014-02-19 06:55:00,75.6,63.0,29.96,ENE,70,5.0,13.0,65,0.00,,FEW018,0.00,VWS V14.00,2014-02-19 11:55:00,
2014-02-19 07:00:00,75.6,63.0,29.96,East,92,6.0,13.0,65,0.00,,FEW018,0.00,VWS V14.00,2014-02-19 12:00:00,
2014-02-19 07:05:00,75.8,63.2,29.96,ENE,67,3.0,12.0,65,0.00,,FEW018,0.00,VWS V14.00,2014-02-19 12:05:00,
2014-02-19 07:10:00,76.0,63.4,29.96,ENE,76,5.0,12.0,65,0.00,,FEW018,0.00,VWS V14.00,2014-02-19 12:10:00,
2014-02-19 07:15:00,76.1,63.9,29.96,ENE,75,6.0,12.0,66,0.00,,FEW018,0.00,VWS V14.00,2014-02-19 12:15:00,
2014-02-19 07:20:00,76.3,64.1,29.96,ENE,74,9.0,12.0,66,0.00,,FEW018,0.00,VWS V14.00,2014-02-19 12:20:00,
2014-02-19 07:25:00,76.5,64.3,29.96,ENE,69,4.0,12.0,66,0.00,,FEW018,0.00,VWS V14.00,2014-02-19 12:25:00,
2014-02-19 07:30:00,76.7,64.5,29.96,ENE,69,3.0,12.0,66,0.00,,FEW018,0.00,VWS V14.00,2014-02-19 12:30:00,
2014-02-19 07:35:00,76.7,64.5,29.97,NE,38,3.0,12.0,66,0.00,,FEW018,0.00,VWS V14.00,2014-02-19 12:35:00,
2014-02-19 07:40:00,76.7,64.5,29.97,ENE,78,7.0,12.0,66,0.00,,FEW018,0.00,VWS V14.00,2014-02-19 12:40:00,
2014-02-19 07:45:00,76.8,64.6,29.97,ENE,59,5.0,12.0,66,0.00,,FEW018,0.00,VWS V14.00,2014-02-19 12:45:00,
2014-02-19 07:50:00,77.0,64.8,29.98,East,97,4.0,12.0,66,0.00,,FEW018,0.00,VWS V14.00,2014-02-19 12:50:00,
2014-02-19 07:55:00,77.2,65.0,29.98,ENE,69,5.0,12.0,66,0.00,,FEW018,0.00,VWS V14.00,2014-02-19 12:55:00,
2014-02-19 08:00:00,77.4,64.7,29.98,ESE,108,4.0,12.0,65,0.00,,FEW018,0.00,VWS V14.00,2014-02-19 13:00:00,
2014-02-19 08:05:00,77.6,64.9,29.98,NNE,30,4.0,6.0,65,0.00,,FEW018,0.00,VWS V14.00,2014-02-19 13:05:00,
2014-02-19 08:10:00,77.6,64.5,29.98,ENE,71,7.0,10.0,64,0.00,,FEW018,0.00,VWS V14.00,2014-02-19 13:10:00,
2014-02-19 08:15:00,77.9,64.8,29.98,ENE,70,4.0,10.0,64,0.00,,FEW018,0.00,VWS V14.00,2014-02-19 13:15:00,
2014-02-19 08:19:00,78.5,65.3,29.98,ENE,61,6.0,11.0,64,0.00,,FEW018,0.00,VWS V14.00,2014-02-19 13:19:00,
2014-02-19 08:24:00,78.6,65.0,29.98,East,88,3.0,11.0,63,0.00,,FEW018,0.00,VWS V14.00,2014-02-19 13:24:00,
2014-02-19 08:29:00,78.8,64.7,29.98,East,93,6.0,12.0,62,0.00,,FEW018,0.00,VWS V14.00,2014-02-19 13:29:00,
2014-02-19 08:34:00,79.0,64.4,29.99,East,82,7.0,12.0,61,0.00,,FEW018,0.00,VWS V14.00,2014-02-19 13:34:00,
2014-02-19 08:39:00,79.4,64.3,29.99,East,89,3.0,12.0,60,0.00,,FEW018,0.00,VWS V14.00,2014-02-19 13:39:00,
2014-02-19 08:44:00,79.8,64.2,29.99,ENE,77,8.0,14.0,59,0.00,,FEW018,0.00,VWS V14.00,2014-02-19 13:44:00,
2014-02-19 08:49:00,80.3,64.2,29.99,ENE,62,7.0,14.0,58,0.00,,FEW018,0.00,VWS V14.00,2014-02-19 13:49:00,
2014-02-19 08:54:00,80.9,63.8,29.99,NE,52,5.0,14.0,56,0.00,,FEW018,0.00,VWS V14.00,2014-02-19 13:54:00,
2014-02-19 08:59:00,80.9,63.2,29.99,East,83,10.0,14.0,55,0.00,,FEW018,0.00,VWS V14.00,2014-02-19 13:59:00,
2014-02-19 09:04:00,81.1,63.4,29.99,ENE,60,9.0,11.0,55,0.00,,FEW018,0.00,VWS V14.00,2014-02-19 14:04:00,
2014-02-19 09:09:00,81.2,63.5,29.99,East,96,7.0,13.0,55,0.00,,FEW018,0.00,VWS V14.00,2014-02-19 14:09:00,
2014-02-19 09:14:00,81.6,63.4,29.99,East,90,11.0,14.0,54,0.00,,FEW018,0.00,VWS V14.00,2014-02-19 14:14:00,
2014-02-19 09:19:00,81.6,62.8,29.99,East,99,9.0,14.0,53,0.00,,FEW018,0.00,VWS V14.00,2014-02-19 14:19:00,
2014-02-19 09:24:00,82.0,63.2,29.99,ESE,103,10.0,15.0,53,0.00,,FEW018,0.00,VWS V14.00,2014-02-19 14:24:00,
2014-02-19 09:29:00,82.4,63.0,29.99,ENE,69,12.0,15.0,52,0.00,,FEW018,0.00,VWS V14.00,2014-02-19 14:29:00,
2014-02-19 09:34:00,82.8,62.8,30.00,East,84,11.0,15.0,51,0.00,,FEW018,0.00,VWS V14.00,2014-02-19 14:34:00,
2014-02-19 09:39:00,83.4,62.8,30.00,ENE,70,9.0,16.0,50,0.00,,FEW018,0.00,VWS V14.00,2014-02-19 14:39:00,
2014-02-19 09:44:00,83.6,62.4,30.00,ENE,72,16.0,21.0,49,0.00,,FEW018,0.00,VWS V14.00,2014-02-19 14:44:00,
2014-02-19 09:49:00,82.2,62.3,30.01,East,92,7.0,21.0,51,0.23,,FEW018,0.02,VWS V14.00,2014-02-19 14:49:00,
2014-02-19 09:54:00,81.1,62.4,30.01,ENE,61,9.0,21.0,53,0.08,,FEW018,0.02,VWS V14.00,2014-02-19 14:54:00,
2014-02-19 09:59:00,80.1,62.0,30.01,ENE,66,3.0,21.0,54,0.06,,FEW018,0.03,VWS V14.00,2014-02-19 14:59:00,
2014-02-19 10:04:00,80.1,64.5,30.01,ENE,76,5.0,11.0,59,0.06,,FEW018,0.03,VWS V14.00,2014-02-19 15:04:00,
2014-02-19 10:09:00,80.3,65.2,30.01,East,96,4.0,11.0,60,0.05,,FEW018,0.03,VWS V14.00,2014-02-19 15:09:00,
2014-02-19 10:14:00,80.7,66.0,30.01,ESE,107,8.0,13.0,61,0.00,,FEW018,0.03,VWS V14.00,2014-02-19 15:14:00,
2014-02-19 10:19:00,81.2,66.0,30.01,East,80,6.0,15.0,60,0.00,,FEW018,0.03,VWS V14.00,2014-02-19 15:19:00,
2014-02-19 10:24:00,82.0,66.8,30.01,ESE,117,7.0,15.0,60,0.00,,FEW018,0.03,VWS V14.00,2014-02-19 15:24:00,
2014-02-19 10:29:00,82.4,65.7,30.01,East,82,9.0,15.0,57,0.00,,FEW018,0.03,VWS V14.00,2014-02-19 15:29:00,
2014-02-19 10:34:00,83.2,65.4,30.01,East,84,10.0,15.0,55,0.00,,FEW018,0.03,VWS V14.00,2014-02-19 15:34:00,
2014-02-19 10:39:00,83.8,64.3,30.01,East,82,9.0,15.0,52,0.00,,FEW018,0.03,VWS V14.00,2014-02-19 15:39:00,
2014-02-19 10:44:00,84.5,64.4,30.01,ESE,105,13.0,15.0,51,0.00,,FEW018,0.03,VWS V14.00,2014-02-19 15:44:00,
2014-02-19 10:49:00,84.7,62.9,30.01,ESE,108,4.0,16.0,48,0.00,,FEW018,0.03,VWS V14.00,2014-02-19 15:49:00,
2014-02-19 10:54:00,84.9,63.0,30.01,ESE,107,6.0,16.0,48,0.00,,FEW018,0.03,VWS V14.00,2014-02-19 15:54:00,
2014-02-19 10:59:00,84.7,62.3,30.01,East,90,10.0,16.0,47,0.00,,FEW018,0.03,VWS V14.00,2014-02-19 15:59:00,
2014-02-19 11:04:00,84.7,62.3,30.00,ESE,113,4.0,10.0,47,0.00,,FEW018,0.03,VWS V14.00,2014-02-19 16:04:00,
2014-02-19 11:08:00,84.5,61.5,30.00,East,90,4.0,14.0,46,0.00,,FEW018,0.03,VWS V14.00,2014-02-19 16:08:00,
2014-02-19 11:13:00,84.7,62.9,30.00,ENE,78,6.0,14.0,48,0.00,,FEW018,0.03,VWS V14.00,2014-02-19 16:13:00,
2014-02-19 11:18:00,84.7,62.3,29.99,East,99,13.0,16.0,47,0.00,,FEW018,0.03,VWS V14.00,2014-02-19 16:18:00,
2014-02-19 11:23:00,84.7,62.9,29.99,ENE,78,6.0,19.0,48,0.00,,FEW018,0.03,VWS V14.00,2014-02-19 16:23:00,
2014-02-19 11:28:00,84.9,63.6,29.99,ESE,116,4.0,19.0,49,0.00,,FEW018,0.03,VWS V14.00,2014-02-19 16:28:00,
2014-02-19 11:33:00,85.3,62.8,29.99,East,101,13.0,19.0,47,0.00,,FEW018,0.03,VWS V14.00,2014-02-19 16:33:00,
2014-02-19 11:38:00,85.7,62.6,29.99,ESE,107,7.0,19.0,46,0.00,,FEW018,0.03,VWS V14.00,2014-02-19 16:38:00,
2014-02-19 11:43:00,86.1,62.9,29.99,East,97,6.0,19.0,46,0.00,,FEW018,0.03,VWS V14.00,2014-02-19 16:43:00,
2014-02-19 11:48:00,86.1,61.0,29.99,ENE,67,9.0,19.0,43,0.00,,FEW018,0.03,VWS V14.00,2014-02-19 16:48:00,
2014-02-19 11:53:00,86.3,60.5,29.99,ENE,58,15.0,19.0,42,0.00,,FEW018,0.03,VWS V14.00,2014-02-19 16:53:00,
2014-02-19 11:58:00,86.1,58.3,29.99,East,92,12.0,19.0,39,0.00,,FEW018,0.03,VWS V14.00,2014-02-19 16:58:00,
2014-02-19 12:02:00,86.3,59.8,29.98,ESE,108,7.0,13.0,41,0.00,,FEW018,0.03,VWS V14.00,2014-02-19 17:02:00,
2014-02-19 12:07:00,86.5,59.3,29.98,ESE,123,8.0,17.0,40,0.00,,FEW018,0.03,VWS V14.00,2014-02-19 17:07:00,
2014-02-19 12:12:00,86.7,59.5,29.98,ESE,111,14.0,17.0,40,0.00,,FEW018,0.03,VWS V14.00,2014-02-19 17:12:00,
2014-02-19 12:17:00,87.2,59.2,29.98,ESE,109,12.0,17.0,39,0.00,,FEW018,0.03,VWS V14.00,2014-02-19 17:17:00,
2014-02-19 12:22:00,87.4,58.7,29.98,ENE,72,12.0,17.0,38,0.00,,FEW018,0.03,VWS V14.00,2014-02-19 17:22:00,
2014-02-19 12:27:00,87.4,58.7,29.98,ENE,76,6.0,17.0,38,0.00,,FEW018,0.03,VWS V14.00,2014-02-19 17:27:00,
2014-02-19 12:32:00,87.6,57.4,29.97,ENE,69,11.0,17.0,36,0.00,,FEW018,0.03,VWS V14.00,2014-02-19 17:32:00,
2014-02-19 12:37:00,87.8,58.3,29.97,East,98,8.0,17.0,37,0.00,,FEW018,0.03,VWS V14.00,2014-02-19 17:37:00,
2014-02-19 12:42:00,87.8,58.3,29.97,East,90,11.0,17.0,37,0.00,,FEW018,0.03,VWS V14.00,2014-02-19 17:42:00,
2014-02-19 12:47:00,88.0,57.7,29.97,East,92,9.0,17.0,36,0.00,,FEW018,0.03,VWS V14.00,2014-02-19 17:47:00,
2014-02-19 12:52:00,88.2,58.7,29.97,ESE,110,10.0,17.0,37,0.00,,FEW018,0.03,VWS V14.00,2014-02-19 17:52:00,
2014-02-19 12:57:00,88.2,58.7,29.97,ENE,70,11.0,17.0,37,0.00,,FEW018,0.03,VWS V14.00,2014-02-19 17:57:00,
2014-02-19 13:02:00,88.2,60.1,29.96,ESE,118,5.0,15.0,39,0.00,,FEW018,0.03,VWS V14.00,2014-02-19 18:02:00,
2014-02-19 13:07:00,88.4,60.3,29.96,East,88,7.0,16.0,39,0.00,,FEW018,0.03,VWS V14.00,2014-02-19 18:07:00,
2014-02-19 13:12:00,88.0,58.5,29.96,East,93,3.0,16.0,37,0.00,,FEW018,0.03,VWS V14.00,2014-02-19 18:12:00,
2014-02-19 13:17:00,88.0,59.2,29.96,ESE,111,7.0,16.0,38,0.00,,FEW018,0.03,VWS V14.00,2014-02-19 18:17:00,
2014-02-19 13:22:00,88.2,60.8,29.96,ESE,105,9.0,17.0,40,0.00,,FEW018,0.03,VWS V14.00,2014-02-19 18:22:00,
2014-02-19 13:27:00,88.2,60.1,29.96,SE,140,6.0,17.0,39,0.00,,FEW018,0.03,VWS V14.00,2014-02-19 18:27:00,
2014-02-19 13:32:00,88.6,63.3,29.95,East,98,6.0,17.0,43,0.00,,FEW018,0.03,VWS V14.00,2014-02-19 18:32:00,
2014-02-19 13:37:00,88.8,59.9,29.95,East,93,6.0,17.0,38,0.00,,FEW018,0.03,VWS V14.00,2014-02-19 18:37:00,
2014-02-19 13:42:00,89.0,62.3,29.95,East,97,11.0,17.0,41,0.00,,FEW018,0.03,VWS V14.00,2014-02-19 18:42:00,
2014-02-19 13:47:00,89.3,63.2,29.95,ESE,106,5.0,17.0,42,0.00,,FEW018,0.03,VWS V14.00,2014-02-19 18:47:00,
2014-02-19 13:52:00,89.3,63.9,29.95,ESE,103,5.0,17.0,43,0.00,,FEW018,0.03,VWS V14.00,2014-02-19 18:52:00,
2014-02-19 13:57:00,89.5,63.4,29.95,SE,128,9.0,17.0,42,0.00,,FEW018,0.03,VWS V14.00,2014-02-19 18:57:00,
2014-02-19 14:02:00,89.7,63.6,29.95,ESE,111,15.0,15.0,42,0.00,,FEW018,0.03,VWS V14.00,2014-02-19 19:02:00,
2014-02-19 14:07:00,89.5,59.8,29.95,ESE,113,13.0,16.0,37,0.00,,FEW018,0.03,VWS V14.00,2014-02-19 19:07:00,
2014-02-19 14:12:00,89.3,59.6,29.95,ESE,121,6.0,16.0,37,0.00,,FEW018,0.03,VWS V14.00,2014-02-19 19:12:00,
2014-02-19 14:17:00,89.3,59.6,29.95,SE,126,10.0,16.0,37,0.00,,FEW018,0.03,VWS V14.00,2014-02-19 19:17:00,
2014-02-19 14:22:00,88.8,57.7,29.95,ENE,57,7.0,16.0,35,0.00,,FEW018,0.03,VWS V14.00,2014-02-19 19:22:00,
2014-02-19 14:27:00,88.4,58.1,29.95,ESE,123,11.0,16.0,36,0.00,,FEW018,0.03,VWS V14.00,2014-02-19 19:27:00,
2014-02-19 14:32:00,88.0,59.2,29.94,ESE,109,10.0,16.0,38,0.00,,FEW018,0.03,VWS V14.00,2014-02-19 19:32:00,
2014-02-19 14:37:00,87.4,58.0,29.94,SE,134,6.0,16.0,37,0.00,,FEW018,0.03,VWS V14.00,2014-02-19 19:37:00,
2014-02-19 14:42:00,87.2,58.5,29.94,East,98,9.0,16.0,38,0.00,,FEW018,0.03,VWS V14.00,2014-02-19 19:42:00,
2014-02-19 14:47:00,87.0,56.8,29.94,SE,128,10.0,16.0,36,0.00,,FEW018,0.03,VWS V14.00,2014-02-19 19:47:00,
2014-02-19 14:52:00,87.2,56.2,29.94,East,88,6.0,16.0,35,0.00,,FEW018,0.03,VWS V14.00,2014-02-19 19:52:00,
2014-02-19 14:57:00,87.4,55.6,29.94,ESE,115,5.0,16.0,34,0.00,,FEW018,0.03,VWS V14.00,2014-02-19 19:57:00,
2014-02-19 15:02:00,87.2,55.4,29.93,ESE,115,11.0,12.0,34,0.00,,FEW018,0.03,VWS V14.00,2014-02-19 20:02:00,
2014-02-19 15:07:00,87.2,53.8,29.93,ENE,66,10.0,15.0,32,0.00,,FEW018,0.03,VWS V14.00,2014-02-19 20:07:00,
2014-02-19 15:12:00,87.2,57.8,29.93,NNE,31,7.0,15.0,37,0.00,,FEW018,0.03,VWS V14.00,2014-02-19 20:12:00,
2014-02-19 15:17:00,87.2,60.7,29.93,East,93,9.0,15.0,41,0.00,,FEW018,0.03,VWS V14.00,2014-02-19 20:17:00,
2014-02-19 15:22:00,87.2,56.2,29.93,ESE,102,7.0,15.0,35,0.00,,FEW018,0.03,VWS V14.00,2014-02-19 20:22:00,
2014-02-19 15:27:00,87.0,59.8,29.93,ENE,69,6.0,15.0,40,0.00,,FEW018,0.03,VWS V14.00,2014-02-19 20:27:00,
2014-02-19 15:32:00,86.3,60.5,29.93,ESE,107,4.0,15.0,42,0.00,,FEW018,0.03,VWS V14.00,2014-02-19 20:32:00,
2014-02-19 15:37:00,85.5,61.8,29.93,ENE,61,6.0,15.0,45,0.00,,FEW018,0.03,VWS V14.00,2014-02-19 20:37:00,
2014-02-19 15:42:00,84.7,61.7,29.93,North,10,2.0,15.0,46,0.00,,FEW018,0.03,VWS V14.00,2014-02-19 20:42:00,
2014-02-19 15:47:00,84.3,60.0,29.93,NE,36,4.0,15.0,44,0.00,,FEW018,0.03,VWS V14.00,2014-02-19 20:47:00,
2014-02-19 15:52:00,84.1,60.5,29.93,NE,34,8.0,15.0,45,0.00,,FEW018,0.03,VWS V14.00,2014-02-19 20:52:00,
2014-02-19 15:57:00,84.0,60.4,29.93,NE,53,4.0,15.0,45,0.00,,FEW018,0.03,VWS V14.00,2014-02-19 20:57:00,
2014-02-19 16:02:00,83.6,60.7,29.93,East,99,5.0,5.0,46,0.00,,FEW018,0.03,VWS V14.00,2014-02-19 21:02:00,
2014-02-19 16:07:00,83.4,60.5,29.93,NE,37,6.0,11.0,46,0.00,,FEW018,0.03,VWS V14.00,2014-02-19 21:07:00,
2014-02-19 16:12:00,83.2,59.7,29.93,East,95,5.0,11.0,45,0.00,,FEW018,0.03,VWS V14.00,2014-02-19 21:12:00,
2014-02-19 16:17:00,83.0,59.5,29.93,ENE,74,11.0,12.0,45,0.00,,FEW018,0.03,VWS V14.00,2014-02-19 21:17:00,
2014-02-19 16:22:00,83.2,60.3,29.93,ESE,116,5.0,12.0,46,0.00,,FEW018,0.03,VWS V14.00,2014-02-19 21:22:00,
2014-02-19 16:27:00,83.0,60.1,29.93,ENE,57,2.0,12.0,46,0.00,,FEW018,0.03,VWS V14.00,2014-02-19 21:27:00,
2014-02-19 16:32:00,83.0,60.1,29.93,East,98,6.0,12.0,46,0.00,,FEW018,0.03,VWS V14.00,2014-02-19 21:32:00,
2014-02-19 16:37:00,83.0,61.3,29.93,NE,44,5.0,12.0,48,0.00,,FEW018,0.03,VWS V14.00,2014-02-19 21:37:00,
2014-02-19 16:42:00,83.0,61.3,29.93,ENE,57,3.0,12.0,48,0.00,,FEW018,0.03,VWS V14.00,2014-02-19 21:42:00,
2014-02-19 16:47:00,82.8,61.1,29.93,NE,46,3.0,12.0,48,0.00,,FEW018,0.03,VWS V14.00,2014-02-19 21:47:00,
2014-02-19 16:52:00,82.6,60.9,29.93,East,97,5.0,12.0,48,0.00,,FEW018,0.03,VWS V14.00,2014-02-19 21:52:00,
2014-02-19 16:57:00,82.6,60.9,29.93,East,88,3.0,12.0,48,0.00,,FEW018,0.03,VWS V14.00,2014-02-19 21:57:00,
2014-02-19 17:02:00,82.4,59.6,29.93,ESE,106,7.0,12.0,46,0.00,,FEW018,0.03,VWS V14.00,2014-02-19 22:02:00,
2014-02-19 17:07:00,82.2,59.4,29.93,East,98,2.0,9.0,46,0.00,,FEW018,0.03,VWS V14.00,2014-02-19 22:07:00,
2014-02-19 17:12:00,82.2,59.4,29.93,ESE,103,3.0,9.0,46,0.00,,FEW018,0.03,VWS V14.00,2014-02-19 22:12:00,
2014-02-19 17:17:00,82.2,58.8,29.93,ESE,121,4.0,9.0,45,0.00,,FEW018,0.03,VWS V14.00,2014-02-19 22:17:00,
2014-02-19 17:22:00,82.0,58.0,29.93,ESE,104,5.0,9.0,44,0.00,,FEW018,0.03,VWS V14.00,2014-02-19 22:22:00,
2014-02-19 17:27:00,82.0,58.0,29.93,East,89,5.0,9.0,44,0.00,,FEW018,0.03,VWS V14.00,2014-02-19 22:27:00,
2014-02-19 17:32:00,81.8,57.1,29.93,ENE,74,7.0,10.0,43,0.00,,FEW018,0.03,VWS V14.00,2014-02-19 22:32:00,
2014-02-19 17:37:00,81.8,57.8,29.93,ENE,78,3.0,10.0,44,0.00,,FEW018,0.03,VWS V14.00,2014-02-19 22:37:00,
2014-02-19 17:42:00,82.0,59.8,29.93,East,80,4.0,10.0,47,0.00,,FEW018,0.03,VWS V14.00,2014-02-19 22:42:00,
2014-02-19 17:47:00,82.0,61.0,29.93,ENE,73,2.0,10.0,49,0.00,,FEW018,0.03,VWS V14.00,2014-02-19 22:47:00,
2014-02-19 17:52:00,81.8,60.2,29.93,ENE,64,3.0,10.0,48,0.00,,FEW018,0.03,VWS V14.00,2014-02-19 22:52:00,
2014-02-19 17:57:00,81.6,60.0,29.93,NE,55,4.0,10.0,48,0.00,,FEW018,0.03,VWS V14.00,2014-02-19 22:57:00,
2014-02-19 18:01:00,81.6,60.6,29.94,East,83,7.0,10.0,49,0.00,,FEW018,0.03,VWS V14.00,2014-02-19 23:01:00,
2014-02-19 18:06:00,81.6,60.6,29.94,East,82,5.0,7.0,49,0.00,,FEW018,0.03,VWS V14.00,2014-02-19 23:06:00,
2014-02-19 18:11:00,81.4,61.0,29.94,East,97,3.0,8.0,50,0.00,,FEW018,0.03,VWS V14.00,2014-02-19 23:11:00,
2014-02-19 18:16:00,81.4,61.0,29.94,East,81,5.0,9.0,50,0.00,,FEW018,0.03,VWS V14.00,2014-02-19 23:16:00,
2014-02-19 18:21:00,81.1,60.7,29.94,East,89,2.0,10.0,50,0.00,,FEW018,0.03,VWS V14.00,2014-02-19 23:21:00,
2014-02-19 18:26:00,80.9,61.1,29.94,East,90,4.0,10.0,51,0.00,,FEW018,0.03,VWS V14.00,2014-02-19 23:26:00,
2014-02-19 18:31:00,80.7,60.9,29.94,ESE,105,3.0,10.0,51,0.00,,FEW018,0.03,VWS V14.00,2014-02-19 23:31:00,
2014-02-19 18:36:00,80.5,60.7,29.94,East,92,2.0,10.0,51,0.00,,FEW018,0.03,VWS V14.00,2014-02-19 23:36:00,
2014-02-19 18:41:00,80.3,61.1,29.94,ENE,75,5.0,10.0,52,0.00,,FEW018,0.03,VWS V14.00,2014-02-19 23:41:00,
2014-02-19 18:46:00,80.1,60.9,29.94,ENE,73,2.0,10.0,52,0.00,,FEW018,0.03,VWS V14.00,2014-02-19 23:46:00,
2014-02-19 18:51:00,80.1,60.9,29.94,NE,51,5.0,10.0,52,0.00,,FEW018,0.03,VWS V14.00,2014-02-19 23:51:00,
2014-02-19 18:56:00,79.9,61.3,29.94,East,89,1.0,10.0,53,0.00,,FEW018,0.03,VWS V14.00,2014-02-19 23:56:00,
2014-02-19 19:01:00,79.8,61.2,29.95,East,100,5.0,10.0,53,0.00,,FEW018,0.03,VWS V14.00,2014-02-20 00:01:00,
2014-02-19 19:06:00,79.6,61.0,29.95,East,96,4.0,6.0,53,0.00,,FEW018,0.03,VWS V14.00,2014-02-20 00:06:00,
2014-02-19 19:11:00,79.4,61.3,29.95,ENE,57,4.0,6.0,54,0.00,,FEW018,0.03,VWS V14.00,2014-02-20 00:11:00,
2014-02-19 19:16:00,79.2,61.1,29.95,ENE,78,2.0,6.0,54,0.00,,FEW018,0.03,VWS V14.00,2014-02-20 00:16:00,
2014-02-19 19:21:00,79.2,61.1,29.95,ENE,64,3.0,6.0,54,0.00,,FEW018,0.03,VWS V14.00,2014-02-20 00:21:00,
2014-02-19 19:26:00,79.0,61.5,29.95,East,94,4.0,7.0,55,0.00,,FEW018,0.03,VWS V14.00,2014-02-20 00:26:00,
2014-02-19 19:31:00,78.8,61.3,29.95,East,96,3.0,7.0,55,0.00,,FEW018,0.03,VWS V14.00,2014-02-20 00:31:00,
2014-02-19 19:36:00,78.6,61.1,29.95,ENE,72,4.0,7.0,55,0.00,,FEW018,0.03,VWS V14.00,2014-02-20 00:36:00,
2014-02-19 19:41:00,78.6,61.6,29.95,ESE,105,3.0,7.0,56,0.00,,FEW018,0.03,VWS V14.00,2014-02-20 00:41:00,
2014-02-19 19:46:00,78.5,61.5,29.95,East,101,2.0,7.0,56,0.00,,FEW018,0.03,VWS V14.00,2014-02-20 00:46:00,
2014-02-19 19:51:00,78.5,62.0,29.95,East,96,5.0,7.0,57,0.00,,FEW018,0.03,VWS V14.00,2014-02-20 00:51:00,
2014-02-19 19:56:00,78.3,61.8,29.95,ESE,103,4.0,7.0,57,0.00,,FEW018,0.03,VWS V14.00,2014-02-20 00:56:00,
2014-02-19 20:01:00,78.1,61.6,29.95,East,96,5.0,7.0,57,0.00,,FEW018,0.03,VWS V14.00,2014-02-20 01:01:00,
2014-02-19 20:06:00,78.1,61.6,29.95,East,101,3.0,6.0,57,0.00,,FEW018,0.03,VWS V14.00,2014-02-20 01:06:00,
2014-02-19 20:11:00,77.9,62.0,29.95,East,82,3.0,6.0,58,0.00,,FEW018,0.03,VWS V14.00,2014-02-20 01:11:00,
2014-02-19 20:16:00,77.7,61.8,29.95,ESE,103,4.0,7.0,58,0.00,,FEW018,0.03,VWS V14.00,2014-02-20 01:16:00,
2014-02-19 20:21:00,77.7,61.8,29.95,ENE,71,3.0,7.0,58,0.00,,FEW018,0.03,VWS V14.00,2014-02-20 01:21:00,
2014-02-19 20:26:00,77.6,61.7,29.95,ESE,119,2.0,7.0,58,0.00,,FEW018,0.03,VWS V14.00,2014-02-20 01:26:00,
2014-02-19 20:31:00,77.6,61.7,29.96,ESE,108,4.0,7.0,58,0.00,,FEW018,0.03,VWS V14.00,2014-02-20 01:31:00,
2014-02-19 20:36:00,77.6,61.7,29.96,ENE,78,1.0,7.0,58,0.00,,FEW018,0.03,VWS V14.00,2014-02-20 01:36:00,
2014-02-19 20:41:00,77.4,62.0,29.96,East,80,4.0,7.0,59,0.00,,FEW018,0.03,VWS V14.00,2014-02-20 01:41:00,
2014-02-19 20:46:00,77.4,62.0,29.96,East,81,4.0,7.0,59,0.00,,FEW018,0.03,VWS V14.00,2014-02-20 01:46:00,
2014-02-19 20:51:00,77.4,62.0,29.96,East,95,5.0,7.0,59,0.00,,FEW018,0.03,VWS V14.00,2014-02-20 01:51:00,
2014-02-19 20:56:00,77.4,62.0,29.96,ENE,76,3.0,7.0,59,0.00,,FEW018,0.03,VWS V14.00,2014-02-20 01:56:00,
2014-02-19 21:01:00,77.2,62.2,29.97,ESE,113,2.0,7.0,60,0.00,,FEW018,0.03,VWS V14.00,2014-02-20 02:01:00,
2014-02-19 21:06:00,77.2,62.2,29.97,NE,38,6.0,7.0,60,0.00,,FEW018,0.03,VWS V14.00,2014-02-20 02:06:00,
2014-02-19 21:11:00,77.2,62.2,29.97,ESE,107,6.0,7.0,60,0.00,,FEW018,0.03,VWS V14.00,2014-02-20 02:11:00,
2014-02-19 21:16:00,77.2,62.2,29.97,East,99,4.0,9.0,60,0.00,,FEW018,0.03,VWS V14.00,2014-02-20 02:16:00,
2014-02-19 21:21:00,77.2,62.7,29.97,ENE,62,3.0,9.0,61,0.00,,FEW018,0.03,VWS V14.00,2014-02-20 02:21:00,
2014-02-19 21:26:00,77.2,62.7,29.97,ENE,72,4.0,9.0,61,0.00,,FEW018,0.03,VWS V14.00,2014-02-20 02:26:00,
2014-02-19 21:31:00,77.2,62.7,29.98,East,83,3.0,10.0,61,0.00,,FEW018,0.03,VWS V14.00,2014-02-20 02:31:00,
2014-02-19 21:36:00,77.2,62.7,29.98,ENE,69,2.0,10.0,61,0.00,,FEW018,0.03,VWS V14.00,2014-02-20 02:36:00,
2014-02-19 21:41:00,77.2,62.7,29.98,ESE,117,3.0,10.0,61,0.00,,FEW018,0.03,VWS V14.00,2014-02-20 02:41:00,
2014-02-19 21:46:00,77.2,62.7,29.98,ENE,66,3.0,10.0,61,0.00,,FEW018,0.03,VWS V14.00,2014-02-20 02:46:00,
2014-02-19 21:51:00,77.0,62.5,29.98,East,89,2.0,10.0,61,0.00,,FEW018,0.03,VWS V14.00,2014-02-20 02:51:00,
2014-02-19 21:56:00,77.0,62.1,29.98,ENE,75,4.0,10.0,60,0.00,,FEW018,0.03,VWS V14.00,2014-02-20 02:56:00,
2014-02-19 22:01:00,77.0,62.1,29.98,East,81,6.0,10.0,60,0.00,,FEW018,0.03,VWS V14.00,2014-02-20 03:01:00,
2014-02-19 22:06:00,77.0,62.1,29.98,East,98,2.0,9.0,60,0.00,,FEW018,0.03,VWS V14.00,2014-02-20 03:06:00,
2014-02-19 22:11:00,77.0,62.1,29.98,ESE,118,4.0,9.0,60,0.00,,FEW018,0.03,VWS V14.00,2014-02-20 03:11:00,
2014-02-19 22:16:00,77.0,62.5,29.98,ESE,104,4.0,10.0,61,0.00,,FEW018,0.03,VWS V14.00,2014-02-20 03:16:00,
2014-02-19 22:21:00,76.8,62.3,29.98,ESE,109,2.0,10.0,61,0.00,,FEW018,0.03,VWS V14.00,2014-02-20 03:21:00,
2014-02-19 22:26:00,76.8,62.3,29.98,East,90,6.0,10.0,61,0.00,,FEW018,0.03,VWS V14.00,2014-02-20 03:26:00,
2014-02-19 22:31:00,76.8,62.3,29.98,ESE,103,2.0,10.0,61,0.00,,FEW018,0.03,VWS V14.00,2014-02-20 03:31:00,
2014-02-19 22:36:00,76.8,62.3,29.98,East,96,4.0,10.0,61,0.00,,FEW018,0.03,VWS V14.00,2014-02-20 03:36:00,
2014-02-19 22:41:00,76.7,62.2,29.98,ENE,66,4.0,10.0,61,0.00,,FEW018,0.03,VWS V14.00,2014-02-20 03:41:00,
2014-02-19 22:46:00,76.7,62.2,29.98,East,100,3.0,10.0,61,0.00,,FEW018,0.03,VWS V14.00,2014-02-20 03:46:00,
2014-02-19 22:51:00,76.7,62.2,29.98,NE,51,4.0,10.0,61,0.00,,FEW018,0.03,VWS V14.00,2014-02-20 03:51:00,
2014-02-19 22:56:00,76.7,62.2,29.98,ENE,64,4.0,10.0,61,0.00,,FEW018,0.03,VWS V14.00,2014-02-20 03:56:00,
2014-02-19 23:01:00,76.7,62.2,29.98,East,94,3.0,10.0,61,0.00,,FEW018,0.03,VWS V14.00,2014-02-20 04:01:00,
2014-02-19 23:06:00,76.7,62.2,29.98,East,91,4.0,7.0,61,0.00,,FEW018,0.03,VWS V14.00,2014-02-20 04:06:00,
2014-02-19 23:11:00,76.7,62.2,29.98,ENE,57,3.0,7.0,61,0.00,,FEW018,0.03,VWS V14.00,2014-02-20 04:11:00,
2014-02-19 23:16:00,76.7,62.2,29.98,East,84,3.0,7.0,61,0.00,,FEW018,0.03,VWS V14.00,2014-02-20 04:16:00,
2014-02-19 23:21:00,76.7,62.7,29.98,East,79,3.0,7.0,62,0.00,,FEW018,0.03,VWS V14.00,2014-02-20 04:21:00,
2014-02-19 23:26:00,76.7,62.7,29.98,East,84,2.0,7.0,62,0.00,,FEW018,0.03,VWS V14.00,2014-02-20 04:26:00,
2014-02-19 23:31:00,76.7,62.7,29.98,East,98,3.0,7.0,62,0.00,,FEW018,0.03,VWS V14.00,2014-02-20 04:31:00,
2014-02-19 23:36:00,76.7,62.7,29.97,ENE,76,3.0,7.0,62,0.00,,FEW018,0.03,VWS V14.00,2014-02-20 04:36:00,
2014-02-19 23:41:00,76.7,62.7,29.97,East,93,4.0,7.0,62,0.00,,FEW018,0.03,VWS V14.00,2014-02-20 04:41:00,
2014-02-19 23:46:00,76.7,63.2,29.97,ENE,70,3.0,7.0,63,0.00,,FEW018,0.03,VWS V14.00,2014-02-20 04:46:00,
2014-02-19 23:51:00,76.7,63.2,29.97,ENE,72,4.0,7.0,63,0.00,,FEW018,0.03,VWS V14.00,2014-02-20 04:51:00,
2014-02-19 23:56:00,76.7,63.2,29.97,East,80,3.0,7.0,63,0.00,,FEW018,0.03,VWS V14.00,2014-02-20 04:56:00,